This is the latest recevied weather packets stored in our database for station/object K6HFP. If no packets are shown the sender has not sent any weather packets the latest 10 day(s).
| Time | Temp. | Humidity | Pressure | Rain* | Wind** | Luminosity | Snow |
|---|---|---|---|---|---|---|---|
| 1777824113 | 13.33° C | 85% | 1009.8 hPa | 0 mm | - | 248 W/m² | - |
| 1777823810 | 13.33° C | 85% | 1009.8 hPa | 0 mm | - | 267 W/m² | - |
| 1777823508 | 13.33° C | 86% | 1010.1 hPa | 0 mm | - | 241 W/m² | - |
| 1777823204 | 13.33° C | 85% | 1009.8 hPa | 0 mm | - | 258 W/m² | - |
| 1777822902 | 13.33° C | 85% | 1009.6 hPa | 0 mm | - | 268 W/m² | - |
| 1777822600 | 12.78° C | 84% | 1009.5 hPa | 0 mm | - | 253 W/m² | - |
| 1777822297 | 12.78° C | 86% | 1009.5 hPa | 0 mm | - | 262 W/m² | - |
| 1777821994 | 12.78° C | 86% | 1009.4 hPa | 0 mm | - | 222 W/m² | - |
| 1777821692 | 12.78° C | 86% | 1009.4 hPa | 0 mm | - | 205 W/m² | - |
| 1777821390 | 12.78° C | 86% | 1009.4 hPa | 0 mm | - | 183 W/m² | - |
| 1777821086 | 12.22° C | 88% | 1009.3 hPa | 0 mm | - | 178 W/m² | - |
| 1777820783 | 12.22° C | 88% | 1009.2 hPa | 0 mm | - | 173 W/m² | - |
| 1777820479 | 11.67° C | 89% | 1009.2 hPa | 0 mm | - | 157 W/m² | - |
| 1777820177 | 11.67° C | 90% | 1009.4 hPa | 0 mm | - | 139 W/m² | - |
| 1777819874 | 11.67° C | 90% | 1009.2 hPa | 0 mm | - | 134 W/m² | - |
| 1777819571 | 11.67° C | 90% | 1009.1 hPa | 0 mm | - | 123 W/m² | - |
| 1777819269 | 11.67° C | 90% | 1009 hPa | 0 mm | - | 113 W/m² | - |
| 1777818965 | 11.67° C | 90% | 1009.1 hPa | 0 mm | - | 103 W/m² | - |
| 1777818662 | 11.11° C | 90% | 1008.9 hPa | 0 mm | - | 89 W/m² | - |
| 1777818359 | 11.11° C | 90% | 1009 hPa | 0 mm | - | 78 W/m² | - |
| 1777818056 | 11.11° C | 90% | 1008.9 hPa | 0 mm | - | 71 W/m² | - |
| 1777817752 | 11.11° C | 89% | 1008.7 hPa | 0 mm | - | 68 W/m² | - |
| 1777817450 | 11.67° C | 89% | 1008.4 hPa | 0 mm | - | 65 W/m² | - |
| 1777817145 | 11.67° C | 89% | 1008.4 hPa | 0 mm | - | 60 W/m² | - |
| 1777816843 | 11.67° C | 88% | 1008.7 hPa | 0 mm | - | 56 W/m² | - |
* Rain latest hour (hover to see other rain measurements)
** Current wind speed in m/s (hover to see current wind gust speed)